Wind_Speed
23 24 23 21 22 23 24 23 18 6 8 22 20 25 29 32 41 48 48 47 47 47 44 42 37 37 35 36 35 33 34 30 27 28 29 27 23 22
23 24 26 24 23 24 26 27 29 25 12 20 25 19 20 18 31 47 51 49 48 51 46 46 43 39 37 39 36 31 35 31 26 26 28 28 27 25
26 26 27 26 27 26 26 29 30 31 22 33 33 33 39 34 27 30 45 50 50 53 50 47 49 44 40 40 40 38 36 33 33 32 28 26 26 28
28 30 31 29 31 31 30 31 33 35 34 32 32 33 33 35 39 30 35 40 44 55 56 52 52 49 43 39 43 40 41 39 35 35 37 37 35 32
33 34 35 32 35 33 33 33 34 36 40 38 34 32 34 31 31 43 33 40 43 48 58 57 54 52 47 46 45 42 44 41 37 36 35 34 34 33
34 37 40 39 41 39 37 39 37 37 37 40 38 35 34 35 30 32 34 38 40 41 47 58 58 53 50 50 49 46 45 44 40 38 37 35 35 35
35 38 41 43 47 47 41 41 39 40 38 38 33 34 34 29 31 36 36 37 40 40 38 47 54 56 54 52 53 50 47 45 45 45 42 40 38 38
37 38 42 45 48 51 54 56 48 41 42 38 37 32 36 35 34 32 36 33 10 39 40 37 44 45 46 52 55 54 52 51 47 46 45 44 43 40
38 42 45 46 50 52 52 59 62 62 57 47 43 43 40 42 38 35 36 37 32 30 39 35 38 42 44 46 52 55 56 53 50 48 47 45 45 42
42 41 46 48 48 50 51 55 59 60 64 63 57 45 47 39 37 35 38 39 39 38 42 25 35 40 42 42 45 54 57 54 52 50 49 48 46 43
39 41 44 46 48 51 53 56 55 55 58 63 64 57 48 41 38 33 33 35 20 27 38 32 33 32 36 38 39 48 57 58 57 53 51 49 48 46
39 38 41 45 45 46 50 53 51 51 49 46 55 57 62 56 47 45 39 35 33 16 30 34 30 25 12 34 35 38 49 57 61 58 57 54 51 49
37 36 36 44 52 55 54 44 52 46 46 43 39 45 50 55 51 47 43 42 46 24 29 42 31 27 17 11 32 37 44 49 57 57 56 57 56 53
34 37 44 52 66 40 34 37 41 42 35 35 36 38 42 42 47 48 51 48 47 57 31 48 30 34 31 13 9 33 38 41 43 48 52 58 57 56
35 39 42 47 46 6 28 32 39 37 33 29 31 36 39 41 39 41 43 44 54 54 45 49 38 37 35 28 20 16 25 35 40 40 43 44 50 53
38 39 38 36 37 37 27 6 30 33 33 32 33 36 33 35 37 42 41 44 42 43 40 44 42 38 33 32 27 19 27 20 36 38 38 39 38 40
31 34 38 41 38 36 31 27 23 6 13 4 33 31 36 37 40 39 40 39 40 27 25 34 37 35 34 31 23 25 27 26 24 34 31 30 33 37
28 31 32 33 32 32 28 24 26 25 21 15 12 11 13 4 18 28 43 40 29 27 28 30 31 25 20 26 30 22 22 23 28 27 28 27 26 29
28 28 28 30 30 32 30 29 29 29 28 27 27 26 22 21 14 14 15 13 20 24 24 27 32 26 12 13 18 31 27 26 28 26 28 26 20 29
29 28 29 31 31 31 32 34 33 35 35 34 33 31 26 16 22 26 23 18 17 15 18 13 9 20 14 14 8 19 30 24 28 25 24 24 26 26
27 27 28 29 31 33 33 34 34 36 35 34 33 31 28 25 30 28 27 30 25 20 14 13 14 4 9 13 6 6 13 22 23 24 25 25 18 21
23 26 27 28 28 30 31 33 36 36 34 33 33 33 31 32 32 30 29 25 24 21 16 20 20 18 13 6 4 5 10 7 8 12 20 18 6 5
23 25 28 31 32 32 31 30 31 33 32 33 32 33 33 34 33 30 27 26 24 22 21 19 23 26 23 16 11 10 10 9 5 6 4 2 2 4
Wind_Direction
275 270 263 258 252 249 245 244 244 265 269 263 253 267 248 230 232 235 233 230 226 224 223 222 217 221 220 217 218 217 209 207 212 213 211 210 211 200
274 271 270 263 259 253 248 243 241 248 262 253 262 261 234 238 239 233 235 233 228 222 223 222 221 222 221 224 220 214 204 201 210 207 206 203 204 214
270 266 264 261 258 253 250 246 242 236 247 262 258 265 265 269 275 252 233 232 228 220 219 220 219 223 226 222 219 212 207 213 212 222 219 215 219 226
268 266 262 261 257 253 250 248 245 243 242 257 257 258 259 261 262 276 238 226 222 222 219 221 220 219 229 227 221 218 214 215 223 222 225 229 232 235
263 261 262 259 258 254 247 248 247 246 246 252 255 252 257 260 261 260 269 225 224 222 222 221 222 222 224 231 223 219 217 214 219 223 224 226 228 228
266 262 257 254 254 252 248 246 244 246 245 244 249 250 250 253 253 254 267 227 223 220 221 221 221 222 224 228 227 221 223 225 221 223 226 228 229 228
270 265 262 255 250 251 248 246 242 240 241 243 244 240 237 235 232 239 242 246 225 217 213 216 217 219 222 227 230 229 226 228 228 232 232 229 230 231
276 273 269 264 260 255 248 247 242 238 239 237 236 237 238 236 239 238 235 248 211 213 208 213 210 213 216 222 226 227 225 227 228 230 232 236 232 232
280 277 270 264 262 257 250 243 239 237 236 237 236 232 237 239 235 235 235 251 215 211 202 210 206 214 215 217 223 227 227 224 226 228 229 231 232 232
282 279 276 274 267 261 251 242 239 234 232 232 237 241 236 232 231 234 239 245 232 213 198 211 203 212 212 218 221 225 228 226 227 227 228 230 232 233
294 289 281 276 272 266 256 246 238 232 231 229 232 235 243 234 235 241 242 234 241 201 195 202 204 206 212 212 218 223 226 228 230 228 229 230 232 234
308 298 293 285 280 279 260 251 229 225 221 224 227 231 236 243 239 232 239 234 256 194 198 198 198 190 202 213 215 219 225 229 229 231 231 229 231 233
314 310 308 303 294 282 274 250 218 216 215 220 222 224 227 230 234 227 233 235 238 238 196 193 196 191 197 178 208 214 221 224 227 229 230 226 229 229
323 326 325 320 312 265 244 218 210 207 209 216 220 225 224 223 225 228 232 237 240 243 223 193 201 194 194 183 182 210 216 220 220 219 225 225 229 231
342 346 343 346 359 245 196 207 205 206 208 213 217 228 222 219 220 222 226 230 235 244 227 196 200 200 198 202 202 202 202 213 214 217 218 220 224 228
354 355 357 6 8 27 38 202 207 207 212 220 225 224 216 219 222 216 213 219 229 236 203 199 197 192 194 202 204 197 193 194 209 212 217 219 222 225
359 6 8 12 10 13 21 29 44 127 209 308 228 232 218 215 213 208 210 220 220 193 186 192 196 200 200 199 201 204 189 198 202 204 208 217 221 224
15 17 9 11 9 10 12 21 35 37 35 38 31 65 64 197 216 224 223 205 194 192 192 188 185 173 184 207 211 203 195 195 204 200 204 211 221 223
27 18 18 10 8 8 12 20 28 28 36 38 40 38 42 46 64 70 81 165 188 189 187 184 182 187 189 203 205 215 198 201 207 199 200 202 214 220
24 20 15 9 8 10 16 20 27 30 31 34 37 38 39 43 59 55 53 62 76 78 74 88 139 190 195 200 181 187 209 209 202 202 203 211 225 236
12 18 17 13 11 12 16 24 25 31 32 34 35 36 36 40 52 50 53 54 55 52 55 37 34 75 157 157 141 124 170 204 211 213 210 206 209 225
13 14 15 18 20 17 18 25 27 27 28 33 34 35 34 39 45 44 44 48 44 43 41 43 64 86 76 67 71 86 104 95 181 194 206 212 201 192
23 23 21 23 25 23 24 24 30 32 31 31 31 32 34 36 38 40 40 42 44 40 33 34 43 58 54 42 64 52 72 63 66 93 82 66 269 272
Height
797 797 797 797 798 799 800 801 800 794 778 771 774 771 771 772 773 776 778 781 786 791 796 801 804 806 808 811 814 816 820 823 827 830 833 836 839 843
790 790 789 789 790 792 793 793 793 790 780 770 769 769 767 765 767 767 769 772 776 782 788 792 798 800 803 806 808 811 815 818 823 827 829 832 836 839
784 783 783 784 783 783 785 785 784 783 773 761 765 765 764 759 761 762 763 764 766 772 777 782 787 794 797 799 803 806 810 814 817 823 826 829 832 835
777 776 776 777 774 775 776 775 774 773 768 754 758 758 758 756 755 756 755 755 758 760 767 772 778 782 790 793 796 800 803 807 812 817 821 824 827 830
771 769 768 769 765 765 764 763 764 762 759 752 744 750 748 750 748 749 749 746 749 751 756 762 768 775 780 785 789 792 795 800 805 810 814 818 821 824
761 757 756 757 753 753 753 751 752 752 750 745 740 739 740 741 745 742 741 736 737 741 744 751 759 765 769 776 781 784 788 792 797 802 807 811 815 818
750 747 743 741 738 740 742 737 738 738 736 734 728 729 726 730 729 728 733 731 727 731 735 740 747 753 759 765 771 775 780 784 789 794 799 803 807 812
737 733 728 726 723 721 723 722 723 723 722 719 716 712 710 715 719 720 722 720 714 718 724 729 735 741 746 752 759 763 769 775 779 784 791 795 799 804
725 718 711 705 703 700 699 696 697 702 703 706 701 698 702 702 707 709 708 711 700 708 714 718 724 730 735 740 747 753 759 765 769 774 781 787 790 795
710 703 694 685 682 680 677 673 671 673 679 684 685 688 686 692 695 697 699 701 697 698 700 706 712 717 725 730 736 742 750 756 760 764 770 777 782 786
695 685 677 665 659 658 653 647 647 649 655 662 669 676 677 682 687 694 692 696 684 679 686 693 700 708 715 718 724 732 739 745 751 756 760 766 772 778
677 667 659 648 639 634 627 619 620 624 637 645 653 661 666 669 679 681 684 684 677 668 672 683 691 698 705 708 713 720 728 734 739 744 749 754 760 768
667 655 643 631 616 604 597 587 592 610 622 632 639 645 648 652 659 663 666 671 672 658 661 672 679 686 691 692 701 708 715 722 726 732 736 742 747 754
664 647 630 611 573 555 569 575 588 601 611 619 626 629 630 631 634 642 648 652 657 663 657 660 666 669 676 686 691 697 703 709 715 719 724 729 735 741
661 646 628 608 578 558 561 573 584 593 601 607 610 612 613 619 627 633 637 642 653 654 649 648 652 660 666 668 678 684 693 696 702 708 715 716 720 724
658 645 635 617 606 583 576 577 582 588 594 597 596 598 603 611 613 618 626 635 641 640 631 638 646 652 657 665 672 676 681 686 690 695 702 706 711 715
665 652 639 624 615 605 597 591 586 585 589 589 587 588 590 593 596 599 607 616 621 616 622 632 640 645 651 656 664 669 673 677 680 686 694 697 700 703
673 662 653 644 636 626 619 609 600 594 591 587 584 579 572 575 580 584 593 595 596 604 615 622 631 639 645 653 658 663 667 670 674 680 685 689 692 694
682 676 668 660 650 640 631 619 608 601 597 588 583 578 574 575 583 583 577 582 592 600 608 615 619 628 635 639 649 655 657 663 668 673 677 680 681 685
689 684 677 670 661 652 641 628 621 612 602 598 595 595 597 602 589 583 589 593 596 602 606 613 616 619 621 628 638 645 649 654 659 664 669 674 676 679
698 692 687 680 669 660 652 644 633 626 622 617 615 614 613 609 596 596 599 604 607 607 612 619 620 619 621 627 635 637 643 650 654 658 661 666 670 673
707 699 694 689 685 675 665 656 648 641 636 632 629 625 622 615 610 613 613 614 619 623 626 624 621 619 623 629 634 638 642 647 649 652 656 659 661 663
713 707 701 693 689 684 679 672 664 660 656 648 640 637 630 623 623 625 629 631 634 634 634 630 627 626 632 638 638 643 644 646 648 649 655 655 658 660